Miscellaneous Local Product
Issued by NWS Hastings, NE

Home | Current Version | Previous Version | Graphics & Text | Print | Product List | Glossary On
Versions: 1 2 3 4 5 6 7 8 9 10 11 12 13 14 15 16 17 18 19 20 21 22 23 24 25 26 27 28 29 30 31 32 33 34 35 36 37 38 39 40 41 42 43 44 45 46 47 48 49 50
000
AXUS43 KGID 261902
MISGRI

GID CWA HOURLY WEATHER ROUNDUP
NATIONAL WEATHER SERVICE HASTINGS NE
100 PM CST FRI DEC 26 2014

NOTE: "FAIR" INDICATES FEW OR NO CLOUDS BELOW 12,000 FEET WITH NO
SIGNIFICANT WEATHER AND/OR OBSTRUCTIONS TO VISIBILITY.

...SOUTH CENTRAL NEBRASKA...

CITY           SKY/WX    TMP DP  RH WIND       PRES   REMARKS
GRAND ISLAND   CLOUDY    29  21  72 N15       30.00F WCI  18
HASTINGS       CLOUDY    29  22  75 N14       29.98F WCI  18
KEARNEY        CLOUDY    27  19  74 N20       29.99F WCI  13
ORD            CLOUDY    27  19  72 N16       30.01F WCI  15
YORK           CLOUDY    28  27  93 N16G22    29.98F WCI  17
AURORA         CLOUDY    29  24  81 N18       29.98F WCI  17
LEXINGTON      CLOUDY    28  20  73 N17       30.00F WCI  15
HOLDREGE       CLOUDY    27  22  79 N15G21    29.98F WCI  16
HEBRON         CLOUDY    31  26  83 N16G23    29.96F WCI  20

...NEBRASKA PANHANDLE...

CITY           SKY/WX    TMP DP  RH WIND       PRES   REMARKS
CHADRON        FLURRIES  21  15  78 NE8       30.07F WCI  11
ALLIANCE       CLOUDY    18  14  84 N15       30.01F WCI   4
SCOTTSBLUFF    LGT SNOW  21  16  81 N3        30.03F VSB 3/4
SIDNEY         LGT SNOW  18  13  80 N12       29.98F VSB 1   WCI   5

...WESTERN AND NORTH CENTRAL NEBRASKA...

CITY           SKY/WX    TMP DP  RH WIND       PRES   REMARKS
VALENTINE      CLOUDY    22  17  81 N15       30.06F WCI   9
AINSWORTH      LGT SNOW  22  19  89 N17       30.04F WCI   8
ONEILL         CLOUDY    24  23  94 N14       30.05R WCI  12
BROKEN BOW     LGT SNOW  26  20  77 N15       30.01F WCI  14
IMPERIAL       LGT SNOW  22  18  85 N16       30.00F VSB 1   WCI   8
NORTH PLATTE   SNOW      24  20  84 N12       30.02F VSB 1/2 WCI  13
MCCOOK         CLOUDY    26  20  77 N14       30.01F WCI  14

...EASTERN NEBRASKA...

CITY           SKY/WX    TMP DP  RH WIND       PRES   REMARKS
NORFOLK        CLOUDY    28  24  85 N16       30.01R WCI  16
SO SIOUX CITY  CLOUDY    33  27  78 N14       30.00F WCI  23
TEKAMAH        CLOUDY    33  28  81 N17       29.99S WCI  22
COLUMBUS       CLOUDY    28  21  74 N15       30.01F WCI  17
ALBION         CLOUDY    28  21  74 N15G23    30.00F WCI  17
OMAHA EPPLEY   CLOUDY    34  30  85 N12       29.98F WCI  25
OFFUTT AFB     CLOUDY    34  30  86 N10       29.95F WCI  26
MILLARD        CLOUDY    33  29  86 N10       29.96F WCI  25
LINCOLN        CLOUDY    33  28  81 N15       29.99F WCI  23
NEBRASKA CITY  CLOUDY    34  33  97 NE12      29.94S FOG     WCI  26
BEATRICE       CLOUDY    32  30  90 N13       29.95S WCI  23
FALLS CITY     CLOUDY    36  31  82 NE8       29.94F WCI  30

...NORTHERN KANSAS...

CITY           SKY/WX    TMP DP  RH WIND       PRES   REMARKS
GOODLAND       LGT SNOW  23  19  85 N18       29.94F FOG     WCI   9
HILL CITY      CLOUDY    29  21  72 N18       29.98F WCI  16
NORTON         CLOUDY    28  21  74 N16       29.97F WCI  17
PHILLIPSBURG   CLOUDY    32  25  74 N10G18    30.00F WCI  24
SMITH CENTER   CLOUDY    28  23  80 N14G21    29.99S WCI  17
BELOIT         CLOUDY    32  27  80 N13       29.98S WCI  22
HAYS           CLOUDY    28  18  64 N18       29.96F WCI  16
RUSSELL        CLOUDY    30  26  85 N14       29.95F WCI  19
CONCORDIA      CLOUDY    32  28  85 NE12      29.97S WCI  23
SALINA         CLOUDY    34  29  82 N13       29.97F WCI  25
TOPEKA         CLOUDY    41  34  76 N5        29.94F HAZE



USA.gov is the U.S. government's official web portal to all federal, state and local government web resources and services.